DECAYED

STARLINK-2595, 48407 (Decayed)

Orbit data source: Space-Track

STARLINK-2595, 48407 was a payload satellite owned by SpaceX/Seattle (US) in LEO that was launched on Tue, 04 May 2021 UTC via an FALCON 9 launch vehicle from the Air Force Eastern Test Range (AFETR). Payload-class satellites include a variety of spacecraft equipped with specific instruments for various scientific and technological missions. These include communications satellites like Starlink; space stations such as the ISS; scientific satellites like the Hubble; Earth observation satellites from companies like Planet Labs, Umbra, and HawkEye 360; GPS; miniature CubeSats for education and research; and military/defense satellites.

Not visible in the next 10 days
Identifier
48407, 2021-038BG
Orbit
Decayed
Country
Flag of USUS
Related business
Manufacturer
SpaceX/Seattle
Mission
Decayed Commercial Communications
Bus & Motor
STARLINK, Unknown motor
Mass
260 kg wet, ~248 kg dry
Launch date (UTC)
2021-05-04 (5 years ago)
Launch vehicle
FALCON 9
Launch site
Air Force Eastern Test Range (AFETR)
Object type
Payload
Rocket body
Debris
Shape & HBR
Box + 1 Pan, 10.1 m
Radar Cross Section
13.562 m², Large (>1 m²)

Expand to show TLE details & history
Last TLE update: 6 months ago

TLE from 6 months ago
0 STARLINK-2595
1 48407U 21038BG  25365.03017750  .06883334  12106-4  12763-2 0  9991
2 48407  53.0079 187.2439 0008622 259.9460 100.0610 16.31351780258396
Epoch: 2025-12-31T00:43Z
TLE epoch observation values (Epoch: 2025-12-31T00:43:27.335Z)
Latitude
0.00003°
Longitude
76.67507°
Altitude
190.825 km
Speed
7.793 km/s
True Right ascension
12h 28m 58s
True Declination
0° 00' 00"
Sunlit
Object was in daylight at epoch
Visualization orbit readout
Latitude
Unknown
Longitude
Unknown
Altitude
Unknown
Speed
Unknown
Apparent Right ascension
Unknown
Apparent Declination
Unknown
Sunlit
N/A
Visualization observer readout
Local Sidereal Time
21:27:27
Azimuth
Unknown
Elevation
Unknown
Doppler factor
Unknown
Orbital elements
Apogee altitude
194.865 km
Perigee altitude
183.54 km
Semi-major axis
6,567.339 km
Eccentricity
0.00086
Inclination
53.0079°
RAAN
187.2439°
Arg. of periapsis
259.946°
True anomaly
100.15826°
Mean anomaly
100.061°
Eccentric anomaly
100.10963°
Mean motion
4.07811 °/min
Orbital period
88.28 mins
BSTAR
0.0012763
Loading maneuver chart data...
Computing Atmospheric mass density...

Documentation

Showing up to 5 results
|